Torna al catalogo

STARLINK-32951

AttivoComunicazioniVLEO
NORAD 63562·PAYLOAD·🇺🇸 United States

Lanciato Apr 13, 2025 da Cape Canaveral Space Force Station

Loading…

Prossimi Passaggi (prossime 24 ore)

TLE

AggiornatoSource: CelesTrak SupGP

Epoca: Sep 14, 2026, 20:50 UTC

1 63562C 25075Q   26257.86854167 -.00001384  00000+0 -50142-4 0  2578
2 63562  42.9997 282.3497 0001412 268.9464 261.7834 15.27573015    14

Traccia STARLINK-32951 in tempo reale con AllMySat

Download on the App Store